DW6891 Weather Reports


time (UTC)temp
F
wind
direction
speed
knots
gust
knots
rain 1hr
in
rain 24hr
in
rain mn
in
humidity
%
barometer
mb
20260507114957 48 285 0.0 0.0 0.00 0.00 0.00 88 1020.4
20260507114457 48 285 0.0 0.0 0.00 0.00 0.00 87 1020.5
20260507113957 48 285 0.0 0.0 0.00 0.00 0.00 88 1020.5
20260507111958 48 285 0.0 0.0 0.00 0.00 0.00 88 1020.5
20260507111457 48 285 0.0 0.0 0.00 0.00 0.00 88 1020.5
20260507110957 48 285 0.0 0.0 0.00 0.00 0.00 88 1020.5
20260507110456 48 285 0.0 0.0 0.00 0.00 0.00 88 1020.5
20260507105500 48 285 0.0 0.0 0.00 0.00 0.00 88 1020.6
20260507104958 48 285 0.0 0.0 0.00 0.00 0.00 89 1020.6
20260507104457 48 285 0.0 0.0 0.00 0.00 0.00 89 1020.6
20260507103957 48 285 0.0 0.0 0.00 0.00 0.00 90 1020.5
20260507103458 48 285 0.0 1.7 0.00 0.00 0.00 90 1020.6
20260507102958 48 285 0.0 1.7 0.00 0.00 0.00 90 1020.7
20260507102459 48 283 0.0 0.9 0.00 0.00 0.00 91 1020.7
20260507101958 48 261 0.0 0.0 0.00 0.00 0.00 91 1020.7
20260507101457 48 261 0.0 0.0 0.00 0.00 0.00 91 1020.7
20260507100957 48 261 0.0 0.0 0.00 0.00 0.00 91 1020.7
20260507100458 48 261 0.0 0.0 0.00 0.00 0.00 91 1020.6
20260507100000 48 261 0.0 0.0 0.00 0.00 0.00 91 1020.7
20260507094459 48 261 0.0 0.0 0.00 0.00 0.00 90 1020.6
20260507093459 48 261 0.0 0.0 0.00 0.00 0.00 90 1020.6
20260507092959 48 261 0.0 0.0 0.00 0.00 0.00 89 1020.6
20260507092459 49 261 0.0 0.0 0.00 0.00 0.00 89 1020.6
20260507091959 49 261 0.0 0.0 0.00 0.00 0.00 89 1020.6
20260507091457 49 261 0.0 0.0 0.00 0.00 0.00 88 1020.6
20260507090959 49 261 0.0 0.0 0.00 0.00 0.00 88 1020.6
20260507090458 50 261 0.0 0.0 0.00 0.00 0.00 88 1020.6
20260507090000 50 261 0.0 0.0 0.00 0.00 0.00 87 1020.6
20260507085459 50 261 0.0 0.0 0.00 0.00 0.00 87 1020.5
20260507084958 50 261 0.0 0.9 0.00 0.00 0.00 88 1020.5
20260507084457 50 261 0.0 0.9 0.00 0.00 0.00 88 1020.5
20260507084000 51 261 0.0 0.9 0.00 0.00 0.00 88 1020.5
20260507082959 51 261 0.0 1.7 0.00 0.00 0.00 88 1020.6
20260507082458 51 269 0.0 0.9 0.00 0.00 0.00 88 1020.5
20260507081958 51 269 0.0 0.9 0.00 0.00 0.00 88 1020.6
20260507081457 51 265 0.0 0.9 0.00 0.00 0.00 88 1020.6
20260507080958 51 265 0.0 2.6 0.00 0.00 0.00 88 1020.5
20260507080459 51 264 0.0 0.9 0.00 0.00 0.00 88 1020.5
20260507075959 51 263 0.0 1.7 0.00 0.00 0.00 88 1020.5
20260507075459 51 263 0.0 2.6 0.00 0.00 0.00 88 1020.6
20260507074959 51 250 0.0 2.6 0.00 0.00 0.00 88 1020.6
20260507074500 51 271 0.9 2.6 0.00 0.00 0.00 88 1020.7
20260507074000 51 252 1.7 2.6 0.00 0.00 0.00 87 1020.6
20260507073459 51 233 0.0 2.6 0.00 0.00 0.00 87 1020.5
20260507073000 51 242 0.0 2.6 0.00 0.00 0.00 87 1020.5
20260507072500 51 232 0.0 1.7 0.00 0.00 0.00 87 1020.5
20260507071959 51 258 0.9 1.7 0.00 0.00 0.00 87 1020.5
20260507071459 52 269 0.0 0.9 0.00 0.00 0.00 88 1020.4
20260507070958 52 270 0.9 0.9 0.00 0.00 0.00 88 1020.5
20260507070459 52 269 0.9 1.7 0.00 0.00 0.00 87 1020.5
20260507065500 52 248 0.0 1.7 0.00 0.00 0.00 87 1020.5
20260507065000 52 245 0.0 1.7 0.00 0.00 0.00 87 1020.5
20260507064500 52 242 0.0 0.0 0.00 0.00 0.00 87 1020.5
20260507064000 52 242 0.0 0.0 0.00 0.00 0.00 87 1020.5
20260507062500 52 242 0.0 1.7 0.00 0.00 0.00 86 1020.5
20260507061958 52 276 0.9 0.9 0.00 0.00 0.00 86 1020.5
20260507061459 52 276 0.0 1.7 0.00 0.00 0.00 86 1020.5
20260507061001 52 276 0.9 1.7 0.00 0.00 0.00 85 1020.5
20260507060459 52 281 0.9 0.9 0.00 0.00 0.00 85 1020.5
20260507060000 52 259 0.0 1.7 0.00 0.00 0.00 85 1020.5
20260507054959 53 268 0.0 1.7 0.00 0.00 0.00 85 1020.5
20260507054459 53 268 0.9 1.7 0.00 0.00 0.00 85 1020.5
20260507054000 53 302 0.0 0.0 0.00 0.00 0.00 85 1020.5
20260507053501 53 302 0.0 0.0 0.00 0.00 0.00 85 1020.4
20260507053001 53 302 0.0 0.0 0.00 0.00 0.00 85 1020.5
20260507052500 53 302 0.0 0.9 0.00 0.00 0.00 84 1020.5
20260507052000 53 302 0.0 1.7 0.00 0.00 0.00 84 1020.5
20260507051458 53 304 0.9 1.7 0.00 0.00 0.00 84 1020.5
20260507050959 53 233 0.0 0.0 0.00 0.00 0.00 84 1020.5
20260507045959 53 233 0.0 4.3 0.00 0.00 0.00 84 1020.5
20260507045458 53 192 0.9 4.3 0.00 0.00 0.00 83 1020.5
20260507044957 53 293 0.0 0.0 0.00 0.00 0.00 84 1020.5
20260507044459 53 293 0.0 0.0 0.00 0.00 0.00 83 1020.5
20260507043958 53 293 0.0 0.0 0.00 0.00 0.00 83 1020.5
20260507043458 53 293 0.0 0.0 0.00 0.00 0.00 83 1020.5
20260507042958 53 293 0.0 1.7 0.00 0.00 0.00 84 1020.4
20260507042459 53 293 0.0 1.7 0.00 0.00 0.00 83 1020.4
20260507041957 54 247 0.0 2.6 0.00 0.00 0.00 83 1020.4
20260507041457 53 224 1.7 2.6 0.00 0.00 0.00 82 1020.5
20260507040959 54 286 0.0 2.6 0.00 0.00 0.00 82 1020.4
20260507040458 54 214 0.0 0.9 0.00 0.00 0.00 83 1020.4
20260507035008 54 256 0.0 0.9 0.00 0.00 0.00 83 1020.3
20260507034459 54 219 0.0 1.7 0.00 0.00 0.00 83 1020.2
20260507033501 54 233 0.9 1.7 0.00 0.00 0.00 84 1020.2
20260507033000 54 299 0.0 0.0 0.00 0.00 0.00 84 1020.1
20260507032458 54 299 0.0 0.9 0.00 0.00 0.00 85 1020.1
20260507031459 54 266 0.0 0.0 0.00 0.00 0.00 84 1019.9
20260507030959 54 266 0.0 0.0 0.00 0.00 0.00 84 1019.9
20260507030459 54 266 0.0 0.0 0.00 0.00 0.00 84 1019.9
20260507025459 54 266 0.0 0.0 0.00 0.00 0.00 84 1019.9
20260507025000 54 266 0.0 0.0 0.00 0.00 0.00 84 1019.9
20260507024500 54 266 0.0 0.9 0.00 0.00 0.00 84 1019.9
20260507023500 55 266 0.0 1.7 0.00 0.00 0.00 84 1019.8
20260507022959 55 266 0.9 1.7 0.00 0.00 0.00 82 1019.8
20260507022458 55 1 0.0 0.9 0.00 0.00 0.00 82 1019.8
20260507021959 55 1 0.0 0.0 0.00 0.00 0.00 82 1019.8
20260507020958 56 1 0.0 0.0 0.00 0.00 0.00 82 1019.8
20260507020000 56 1 0.0 0.0 0.00 0.00 0.00 81 1019.8
20260507015459 56 1 0.0 0.0 0.00 0.00 0.00 81 1019.8
20260507014458 56 1 0.0 0.0 0.00 0.00 0.00 80 1019.7
20260507013000 56 15 0.0 2.6 0.00 0.00 0.00 80 1019.8
20260507012459 56 1 0.0 2.6 0.00 0.00 0.00 80 1019.8
20260507011959 56 13 0.0 0.9 0.00 0.00 0.00 80 1019.7
20260507011458 56 13 0.0 0.9 0.00 0.00 0.00 80 1019.7
20260507010959 56 24 0.0 0.9 0.00 0.00 0.00 80 1019.8
20260507010459 56 24 0.0 0.9 0.00 0.00 0.00 79 1019.8
20260507005457 56 39 0.9 1.7 0.00 0.00 0.00 79 1019.9
20260507004459 56 68 0.0 1.7 0.00 0.00 0.00 79 1019.9
20260507004000 56 72 0.9 1.7 0.00 0.00 0.00 79 1019.9
20260507003459 56 338 0.0 1.7 0.00 0.00 0.00 78 1019.9
20260507002959 57 71 0.9 2.6 0.00 0.00 0.00 78 1019.9
20260507002458 57 356 0.9 2.6 0.00 0.00 0.00 78 1020.0
20260507001958 57 311 0.0 3.5 0.00 0.00 0.00 78 1019.9
20260507001458 57 86 0.0 3.5 0.00 0.00 0.00 77 1019.8
20260507000959 57 284 0.0 3.5 0.00 0.00 0.00 77 1019.9
20260507000500 57 120 0.0 3.5 0.00 0.00 0.00 77 1019.9
20260507000002 57 7 0.9 2.6 0.00 0.00 0.00 77 1019.9
20260506235459 57 342 0.0 2.6 0.00 0.00 0.00 78 1019.9
20260506234959 57 359 0.9 2.6 0.00 0.00 0.00 77 1019.9
20260506234459 57 44 0.0 0.9 0.00 0.00 0.00 79 1019.9
20260506234000 57 359 0.0 1.7 0.00 0.00 0.00 78 1019.9
20260506233500 57 6 0.0 3.5 0.00 0.00 0.00 77 1019.9
20260506232959 57 291 0.9 3.5 0.00 0.00 0.00 76 1020.0
20260506232459 57 1 0.9 1.7 0.00 0.00 0.00 76 1020.0
20260506231959 57 338 0.9 1.7 0.00 0.00 0.00 76 1020.0
20260506230958 57 308 0.9 1.7 0.00 0.00 0.00 75 1020.0
20260506230457 57 306 0.0 1.7 0.00 0.00 0.00 76 1019.9
20260506225457 56 243 0.9 3.5 0.00 0.00 0.00 76 1020.0
20260506224958 56 298 0.9 3.5 0.00 0.00 0.00 77 1020.0
20260506224501 56 270 0.0 3.5 0.00 0.00 0.00 77 1020.1
20260506224000 56 216 0.0 3.5 0.00 0.00 0.00 77 1020.1
20260506223458 56 250 0.9 1.7 0.00 0.00 0.00 78 1020.1
20260506222959 56 260 0.0 1.7 0.00 0.00 0.00 78 1020.2
20260506221500 57 349 1.7 3.5 0.00 0.00 0.00 77 1020.3
20260506220459 57 317 0.9 1.7 0.00 0.00 0.00 79 1020.3
20260506215958 57 333 0.0 1.7 0.00 0.00 0.00 78 1020.2
20260506215457 57 297 0.9 1.7 0.00 0.00 0.00 78 1020.3
20260506214458 57 307 0.0 2.6 0.00 0.00 0.00 79 1020.3
20260506213958 57 346 1.7 3.5 0.00 0.00 0.00 79 1020.3
20260506213457 57 311 0.9 3.5 0.00 0.00 0.00 79 1020.3
20260506212958 56 340 0.9 1.7 0.00 0.00 0.00 80 1020.3
20260506212458 56 314 0.9 2.6 0.00 0.00 0.00 80 1020.3
20260506211956 56 279 0.9 3.5 0.00 0.00 0.00 79 1020.3
20260506210958 56 284 0.9 3.5 0.00 0.00 0.00 79 1020.2
20260506210458 56 311 0.0 3.5 0.00 0.00 0.00 80 1020.2
20260506210002 56 357 0.9 3.5 0.00 0.00 0.00 80 1020.2
20260506205458 56 340 0.9 3.5 0.00 0.00 0.00 81 1020.2
20260506204957 57 204 0.0 0.9 0.00 0.00 0.00 82 1020.2
20260506204459 57 245 0.0 1.7 0.00 0.00 0.00 82 1020.1
20260506203959 56 200 0.9 2.6 0.00 0.00 0.00 82 1020.1
20260506203459 56 259 0.9 2.6 0.00 0.00 0.00 82 1020.1
20260506202959 56 196 0.9 2.6 0.00 0.00 0.00 82 1020.1
20260506202459 56 282 0.9 2.6 0.00 0.00 0.00 82 1020.0
20260506201958 56 269 0.9 1.7 0.00 0.00 0.00 83 1020.0
20260506201458 56 268 0.9 1.7 0.00 0.00 0.00 83 1020.0
20260506200458 56 227 0.9 4.3 0.00 0.00 0.00 83 1020.0
20260506200001 56 271 0.9 4.3 0.00 0.00 0.00 84 1020.0
20260506195458 56 307 1.7 4.3 0.00 0.00 0.00 83 1019.9
20260506193958 56 224 0.9 1.7 0.00 0.00 0.00 85 1019.8
20260506193458 55 181 0.9 2.6 0.00 0.00 0.00 84 1019.8
20260506192500 55 238 0.0 0.9 0.00 0.00 0.00 85 1019.9
20260506192001 55 179 0.0 1.7 0.00 0.00 0.00 85 1019.9
20260506191458 55 105 0.0 1.7 0.00 0.00 0.00 86 1019.9
20260506190959 55 269 0.0 1.7 0.00 0.00 0.00 85 1019.9
20260506190459 55 160 0.9 0.9 0.00 0.00 0.00 85 1019.9
20260506185958 55 192 0.0 2.6 0.00 0.00 0.00 85 1019.9
20260506185458 55 225 0.0 2.6 0.00 0.00 0.00 85 1020.0
20260506184959 55 276 2.6 2.6 0.00 0.00 0.00 85 1020.0
20260506184500 55 276 0.0 2.6 0.00 0.00 0.00 84 1020.1
20260506183458 55 235 0.9 2.6 0.00 0.00 0.00 84 1019.9
20260506181956 54 217 1.7 3.5 0.00 0.00 0.00 85 1019.7
20260506181457 54 149 0.9 1.7 0.00 0.00 0.00 86 1019.7
20260506180457 54 302 1.7 2.6 0.00 0.00 0.00 86 1019.8
20260506175957 54 304 1.7 4.3 0.00 0.00 0.00 87 1019.8
20260506175458 54 252 0.0 4.3 0.00 0.00 0.00 87 1019.8
20260506174957 54 184 0.0 2.6 0.00 0.00 0.00 87 1019.8
20260506174456 53 263 0.9 3.5 0.00 0.00 0.00 87 1019.8
20260506173957 53 265 2.6 3.5 0.00 0.00 0.00 88 1019.8
20260506173456 53 272 0.9 1.7 0.00 0.00 0.00 89 1019.9
20260506171958 53 259 0.0 4.3 0.00 0.00 0.00 89 1019.8
20260506171457 53 267 1.7 1.7 0.00 0.00 0.00 90 1019.7
20260506170958 53 217 0.9 1.7 0.00 0.00 0.00 89 1019.8
20260506170457 53 213 0.9 1.7 0.00 0.00 0.00 89 1019.7
20260506170000 53 270 1.7 1.7 0.00 0.00 0.00 90 1019.8
20260506165458 53 266 0.0 2.6 0.00 0.00 0.00 91 1019.6
20260506164957 53 271 0.9 2.6 0.00 0.00 0.00 91 1019.4
20260506164458 53 238 0.0 1.7 0.00 0.00 0.00 91 1019.4
20260506163959 53 252 0.9 1.7 0.00 0.00 0.00 91 1019.3
20260506163458 53 85 0.9 1.7 0.00 0.00 0.00 91 1019.3
20260506162959 52 102 0.0 0.9 0.00 0.00 0.00 92 1019.4
20260506161959 52 230 0.9 0.9 0.00 0.00 0.00 92 1019.2
20260506161458 52 224 0.0 0.9 0.00 0.00 0.00 91 1019.3
20260506161000 52 274 0.0 0.9 0.00 0.00 0.00 92 1019.4
20260506160500 52 260 0.0 1.7 0.00 0.00 0.00 92 1019.5
20260506155957 52 260 0.0 1.7 0.00 0.00 0.00 91 1019.6
20260506155458 52 274 0.9 1.7 0.00 0.00 0.00 92 1019.6
20260506154958 52 295 0.9 2.6 0.00 0.00 0.00 92 1019.5
20260506153957 52 293 0.9 1.7 0.00 0.00 0.00 92 1019.2
20260506153456 52 163 0.0 1.7 0.00 0.00 0.00 92 1019.1
20260506152957 52 147 0.0 1.7 0.00 0.00 0.00 92 1019.1
20260506152457 52 157 0.0 2.6 0.00 0.00 0.00 92 1019.2
20260506151957 52 259 0.0 2.6 0.00 0.00 0.00 92 1019.4
20260506150956 52 300 0.0 0.9 0.00 0.00 0.00 92 1019.4
20260506150458 52 300 0.0 1.7 0.00 0.00 0.00 92 1019.3
20260506145459 52 261 0.9 1.7 0.00 0.00 0.00 92 1019.4
20260506144959 52 272 0.0 1.7 0.00 0.00 0.00 92 1019.2
20260506144501 52 286 0.0 1.7 0.00 0.00 0.00 92 1019.0
20260506143959 52 269 0.9 1.7 0.00 0.00 0.00 92 1019.0
20260506143457 52 5 0.0 0.9 0.00 0.00 0.00 92 1018.8
20260506142958 52 5 0.0 0.9 0.00 0.00 0.00 91 1018.9
20260506142458 52 5 0.0 0.0 0.00 0.00 0.00 91 1019.1
20260506141958 52 5 0.0 0.0 0.00 0.00 0.00 91 1019.1
20260506141459 52 5 0.0 0.9 0.00 0.00 0.00 92 1019.1
20260506140000 52 61 0.9 1.7 0.00 0.00 0.00 91 1018.9
20260506135458 52 293 0.0 1.7 0.00 0.00 0.00 91 1019.1
20260506134958 52 303 0.0 0.0 0.00 0.00 0.00 91 1019.0
20260506134459 52 303 0.0 0.9 0.00 0.00 0.00 91 1018.9
20260506133957 52 303 0.0 1.7 0.00 0.00 0.00 91 1019.0
20260506132957 52 258 0.0 0.0 0.00 0.00 0.00 91 1018.6
20260506131957 52 258 0.0 0.9 0.00 0.00 0.00 91 1018.6
20260506131459 52 207 0.0 0.9 0.00 0.00 0.00 91 1018.6
20260506130458 52 222 0.0 1.7 0.00 0.00 0.00 91 1018.5
20260506125958 52 239 0.0 0.9 0.00 0.00 0.00 91 1018.5
20260506125457 52 239 0.0 0.9 0.00 0.00 0.00 91 1018.6
20260506124958 52 239 0.0 0.9 0.00 0.00 0.00 91 1018.4
20260506124459 52 239 0.0 0.0 0.00 0.00 0.00 91 1018.4
20260506123958 52 239 0.0 0.9 0.00 0.00 0.00 91 1018.3
20260506122958 52 143 0.0 0.0 0.00 0.00 0.00 91 1018.2
20260506121958 52 143 0.0 0.0 0.00 0.00 0.00 91 1018.2
20260506121459 52 143 0.0 0.0 0.00 0.00 0.00 91 1018.2
20260506120957 52 143 0.0 0.0 0.00 0.00 0.00 91 1018.1
20260506120458 52 143 0.0 0.0 0.00 0.00 0.00 91 1018.1
20260506120000 52 143 0.0 0.0 0.00 0.00 0.00 91 1018.0
20260506115458 52 143 0.0 0.0 0.00 0.00 0.00 91 1018.0